FW4158 Weather Reports


Display with metric or nautical units.
time (UTC)temp
F
wind
direction
speed
MPH
gust
MPH
rain 1hr
in
rain 24hr
in
rain mn
in
humidity
%
barometer
mb
20260507172019 0 0.0 0.0 0.00 0.00 0.00 1014.5
20260507171511 0 0.0 0.0 0.00 0.00 0.00 1014.5
20260507170929 0 0.0 0.0 0.00 0.00 0.00 1014.5
20260507170412 0 0.0 0.0 0.00 0.00 0.00 1014.6
20260507165911 0 0.0 0.0 0.00 0.00 0.00 1014.6
20260507165329 0 0.0 0.0 0.00 0.00 0.00 1014.6
20260507164246 0 0.0 0.0 0.00 0.00 0.00 1014.5
20260507163728 0 0.0 0.0 0.00 0.00 0.00 1014.3
20260507163220 0 0.0 0.0 0.00 0.00 0.00 1014.3
20260507162717 0 0.0 0.0 0.00 0.00 0.00 1014.3
20260507162213 0 0.0 0.0 0.00 0.00 0.00 1014.4
20260507161712 0 0.0 0.0 0.00 0.00 0.00 1014.4
20260507161209 0 0.0 0.0 0.00 0.00 0.00 1014.4
20260507160707 0 0.0 0.0 0.00 0.00 0.00 1014.4
20260507160201 0 0.0 0.0 0.00 0.00 0.00 1014.4
20260507155033 0 0.0 0.0 0.00 0.00 0.00 1014.6
20260507154454 0 0.0 0.0 0.00 0.00 0.00 1014.6
20260507152908 0 0.0 0.0 0.00 0.00 0.00 1014.5
20260507152330 0 0.0 0.0 0.00 0.00 0.00 1014.5
20260507151828 0 0.0 0.0 0.00 0.00 0.00 1014.7
20260507151316 0 0.0 0.0 0.00 0.00 0.00 1014.7
20260507150735 0 0.0 0.0 0.00 0.00 0.00 1014.7
20260507150201 0 0.0 0.0 0.00 0.00 0.00 1014.8
20260507145623 0 0.0 0.0 0.00 0.00 0.00 1014.8
20260507143413 0 0.0 0.0 0.00 0.00 0.00 1015.0
20260507142832 0 0.0 0.0 0.00 0.00 0.00 1015.0
20260507142242 0 110 11.0 10.0 0.00 0.00 0.00 1015.0
20260507141121 0 110 11.0 10.0 0.00 0.00 0.00 1015.0
20260507140551 0 110 11.0 10.0 0.00 0.00 0.00 1015.1
20260507140008 0 101 11.0 10.0 0.00 0.00 0.00 1015.1
20260507135458 0 101 11.0 10.0 0.00 0.00 0.00 1015.1
20260507134948 0 110 10.0 12.0 0.00 0.00 0.00 1015.2
20260507134440 0 110 10.0 14.0 0.00 0.00 0.00 1015.2
20260507133923 0 107 10.0 14.0 0.00 0.00 0.00 1015.2
20260507133354 0 111 10.0 13.0 0.00 0.00 0.00 1015.3
20260507132852 0 129 10.0 12.0 0.00 0.00 0.00 1015.3
20260507131831 0 79 12.0 10.0 0.00 0.00 0.00 1015.4
20260507131320 0 79 12.0 10.0 0.00 0.00 0.00 1015.4
20260507130249 0 79 12.0 12.0 0.00 0.00 0.00 1015.4
20260507125701 0 100 12.0 12.0 0.00 0.00 0.00 1015.4
20260507125129 0 87 12.0 12.0 0.00 0.00 0.00 1015.4
20260507124625 0 102 12.0 12.0 0.00 0.00 0.00 1015.4
20260507124050 0 93 12.0 12.0 0.00 0.00 0.00 1015.4
20260507123550 0 109 12.0 16.0 0.00 0.00 0.00 1015.5
20260507123050 0 109 12.0 16.0 0.00 0.00 0.00 1015.5
20260507122524 0 103 12.0 16.0 0.00 0.00 0.00 1015.5
20260507121948 0 103 12.0 16.0 0.00 0.00 0.00 1015.7
20260507121421 0 123 12.0 16.0 0.00 0.00 0.00 1015.7
20260507120923 0 96 11.0 17.0 0.00 0.00 0.00 1015.7
20260507120410 0 95 11.0 16.0 0.00 0.00 0.00 1015.8
20260507115911 0 94 11.0 14.0 0.00 0.00 0.00 1015.8
20260507114835 0 101 11.0 15.0 0.00 0.00 0.00 1015.8
20260507114252 0 101 11.0 15.0 0.00 0.00 0.00 1015.8
20260507113733 0 102 11.0 15.0 0.00 0.00 0.00 1015.9
20260507113222 0 101 11.0 15.0 0.00 0.00 0.00 1015.9
20260507112718 0 99 10.0 15.0 0.00 0.00 0.00 1015.9
20260507111630 0 85 10.0 15.0 0.00 0.00 0.00 1015.8
20260507110627 0 130 11.0 15.0 0.00 0.00 0.00 1015.8
20260507110127 0 105 10.0 15.0 0.00 0.00 0.00 1015.8
20260507105627 0 97 9.0 14.0 0.00 0.00 0.00 1015.8
20260507105126 0 87 9.0 12.0 0.00 0.00 0.00 1015.8
20260507104548 0 87 9.0 12.0 0.00 0.00 0.00 1015.8
20260507104016 0 106 9.0 13.0 0.00 0.00 0.00 1015.8
20260507103433 0 106 9.0 13.0 0.00 0.00 0.00 1016.1
20260507102927 0 87 8.0 12.0 0.00 0.00 0.00 1016.1
20260507101922 0 85 8.0 11.0 0.00 0.00 0.00 1016.0
20260507101418 0 100 8.0 10.0 0.00 0.00 0.00 1016.0
20260507095759 0 95 8.0 11.0 0.00 0.00 0.00 1016.1
20260507094801 0 82 8.0 10.0 0.00 0.00 0.00 1016.1
20260507094247 0 106 6.0 10.0 0.00 0.00 0.00 1016.1
20260507093239 0 91 7.0 10.0 0.00 0.00 0.00 1016.2
20260507092716 0 84 7.0 10.0 0.00 0.00 0.00 1016.2
20260507092217 0 101 7.0 9.0 0.00 0.00 0.00 1016.3
20260507091648 0 101 7.0 9.0 0.00 0.00 0.00 1016.3
20260507091125 0 73 7.0 11.0 0.00 0.00 0.00 1016.3
20260507090613 0 79 7.0 11.0 0.00 0.00 0.00 1016.3
20260507090112 0 76 7.0 11.0 0.00 0.00 0.00 1016.3
20260507085104 0 88 6.0 10.0 0.00 0.00 0.00 1016.4
20260507083548 0 0.0 0.0 0.00 0.00 0.00 1016.3
20260507083028 0 0.0 0.0 0.00 0.00 0.00 1016.3
20260507081928 0 86 5.0 6.0 0.00 0.00 0.00 1016.3
20260507081426 0 86 5.0 6.0 0.00 0.00 0.00 1016.3
20260507080907 0 86 5.0 7.0 0.00 0.00 0.00 1016.3
20260507080405 0 86 5.0 7.0 0.00 0.00 0.00 1016.3
20260507075857 0 81 5.0 7.0 0.00 0.00 0.00 1016.3
20260507075332 0 0.0 0.0 0.00 0.00 0.00 1016.3
20260507074800 0 0.0 0.0 0.00 0.00 0.00 1016.4
20260507074242 0 78 5.0 5.0 0.00 0.00 0.00 1016.4
20260507073150 0 78 5.0 6.0 0.00 0.00 0.00 1016.3
20260507072645 0 78 5.0 6.0 0.00 0.00 0.00 1016.3
20260507071634 0 0.0 0.0 0.00 0.00 0.00 1016.3
20260507071129 0 0.0 0.0 0.00 0.00 0.00 1016.3
20260507070111 0 0.0 0.0 0.00 0.00 0.00 1016.4
20260507065610 0 0.0 0.0 0.00 0.00 0.00 1016.4
20260507064600 0 0.0 0.0 0.00 0.00 0.00 1016.5
20260507063554 0 0.0 0.0 0.00 0.00 0.00 1016.5
20260507063047 0 0.0 0.0 0.00 0.00 0.00 1016.5
20260507062505 0 0.0 0.0 0.00 0.00 0.00 1016.5
20260507061928 0 0.0 0.0 0.00 0.00 0.00 1016.5
20260507061345 0 0.0 0.0 0.00 0.00 0.00 1016.5
20260507060805 0 0.0 0.0 0.00 0.00 0.00 1016.5
20260507060257 0 0.0 0.0 0.00 0.00 0.00 1016.5
20260507055719 0 0.0 0.0 0.00 0.00 0.00 1016.5
20260507055204 0 0.0 0.0 0.00 0.00 0.00 1016.3
20260507054627 0 0.0 0.0 0.00 0.00 0.00 1016.3
20260507054047 0 0.0 0.0 0.00 0.00 0.00 1016.3
20260507053506 0 0.0 0.0 0.00 0.00 0.00 1016.2
20260507052927 0 0.0 0.0 0.00 0.00 0.00 1016.2
20260507052338 0 0.0 0.0 0.00 0.00 0.00 1016.2
20260507051757 0 0.0 0.0 0.00 0.00 0.00 1016.2
20260507050627 0 0.0 0.0 0.00 0.00 0.00 1016.1
20260507050115 0 0.0 0.0 0.00 0.00 0.00 1016.1
20260507045523 0 0.0 0.0 0.00 0.00 0.00 1016.1
20260507044957 0 0.0 0.0 0.00 0.00 0.00 1015.9
20260507044410 0 0.0 0.0 0.00 0.00 0.00 1015.9
20260507043832 0 0.0 0.0 0.00 0.00 0.00 1015.9
20260507043322 0 0.0 0.0 0.00 0.00 0.00 1015.7
20260507042744 0 0.0 0.0 0.00 0.00 0.00 1015.7
20260507042236 0 0.0 0.0 0.00 0.00 0.00 1015.7
20260507041700 0 0.0 0.0 0.00 0.00 0.00 1015.6
20260507040549 0 0.0 0.0 0.00 0.00 0.00 1015.5
20260507040008 0 0.0 0.0 0.00 0.00 0.00 1015.5
20260507035427 0 0.0 0.0 0.00 0.00 0.00 1015.5
20260507034905 0 0.0 0.0 0.00 0.00 0.00 1015.4
20260507034314 0 0.0 0.0 0.00 0.00 0.00 1015.4
20260507033735 0 0.0 0.0 0.00 0.00 0.00 1015.4
20260507032649 0 0.0 0.0 0.00 0.00 0.00 1015.1
20260507031603 0 0.0 0.0 0.00 0.00 0.00 1015.1
20260507031024 0 0.0 0.0 0.00 0.00 0.00 1015.1
20260507025332 0 0.0 0.0 0.00 0.00 0.00 1015.0
20260507024252 0 0.0 0.0 0.00 0.00 0.00 1015.0
20260507023735 0 0.0 0.0 0.00 0.00 0.00 1015.0
20260507022620 0 0.0 0.0 0.00 0.00 0.00 1014.9
20260507022117 0 0.0 0.0 0.00 0.00 0.00 1015.0
20260507021538 0 0.0 0.0 0.00 0.00 0.00 1015.0
20260507020958 0 0.0 0.0 0.00 0.00 0.00 1015.0
20260507020418 0 0.0 0.0 0.00 0.00 0.00 1015.0
20260507015911 0 0.0 0.0 0.00 0.00 0.00 1015.0
20260507015332 0 0.0 0.0 0.00 0.00 0.00 1015.0
20260507014832 0 0.0 0.0 0.00 0.00 0.00 1014.9
20260507014252 0 0.0 0.0 0.00 0.00 0.00 1014.9
20260507013753 0 0.0 0.0 0.00 0.00 0.00 1014.9
20260507013247 0 0.0 0.0 0.00 0.00 0.00 1014.9
20260507012719 0 0.0 0.0 0.00 0.00 0.00 1014.9
20260507012141 0 0.0 0.0 0.00 0.00 0.00 1014.9
20260507011551 0 0.0 0.0 0.00 0.00 0.00 1014.9
20260507005911 0 0.0 0.0 0.00 0.00 0.00 1014.9
20260507005332 0 0.0 0.0 0.00 0.00 0.00 1014.9
20260507004750 0 0.0 0.0 0.00 0.00 0.00 1015.0
20260507003649 0 0.0 0.0 0.00 0.00 0.00 1015.0
20260507002628 0 0.0 0.0 0.00 0.00 0.00 1015.0
20260507001533 0 0.0 0.0 0.00 0.00 0.00 1015.0
20260506231626 0 0.0 0.0 0.00 0.00 0.00 1015.3
20260506230523 0 0.0 0.0 0.00 0.00 0.00 1015.3
20260506230018 0 0.0 0.0 0.00 0.00 0.00 1015.3
20260506225425 0 0.0 0.0 0.00 0.00 0.00 1015.3
20260506224848 0 0.0 0.0 0.00 0.00 0.00 1015.2
20260506224311 0 0.0 0.0 0.00 0.00 0.00 1015.2
20260506223730 0 0.0 0.0 0.00 0.00 0.00 1015.2
20260506223219 0 0.0 0.0 0.00 0.00 0.00 1015.3
20260506222114 0 0.0 0.0 0.00 0.00 0.00 1015.3
20260506221534 0 0.0 0.0 0.00 0.00 0.00 1015.3
20260506221022 0 0.0 0.0 0.00 0.00 0.00 1015.3
20260506220441 0 0.0 0.0 0.00 0.00 0.00 1015.3
20260506215901 0 0.0 0.0 0.00 0.00 0.00 1015.3
20260506215311 0 0.0 0.0 0.00 0.00 0.00 1015.3
20260506213745 0 0.0 0.0 0.00 0.00 0.00 1015.4
20260506212229 0 0.0 0.0 0.00 0.00 0.00 1015.4
20260506211727 0 0.0 0.0 0.00 0.00 0.00 1015.4
20260506211219 0 0.0 0.0 0.00 0.00 0.00 1015.4
20260506210716 0 0.0 0.0 0.00 0.00 0.00 1015.4
20260506210217 0 0.0 0.0 0.00 0.00 0.00 1015.4
20260506205712 0 0.0 0.0 0.00 0.00 0.00 1015.4
20260506205205 0 0.0 0.0 0.00 0.00 0.00 1015.4
20260506204658 0 0.0 0.0 0.00 0.00 0.00 1015.4
20260506204153 0 0.0 0.0 0.00 0.00 0.00 1015.4
20260506203601 0 0.0 0.0 0.00 0.00 0.00 1015.4
20260506203056 0 0.0 0.0 0.00 0.00 0.00 1015.4
20260506202537 0 0.0 0.0 0.00 0.00 0.00 1015.4
20260506202036 0 0.0 0.0 0.00 0.00 0.00 1015.4
20260506201511 0 0.0 0.0 0.00 0.00 0.00 1015.5
20260506200917 0 0.0 0.0 0.00 0.00 0.00 1015.5
20260506200403 0 0.0 0.0 0.00 0.00 0.00 1015.5
20260506195825 0 0.0 0.0 0.00 0.00 0.00 1015.5
20260506195319 0 0.0 0.0 0.00 0.00 0.00 1015.5
20260506194808 0 0.0 0.0 0.00 0.00 0.00 1015.2
20260506194304 0 0.0 0.0 0.00 0.00 0.00 1015.2
20260506193759 0 0.0 0.0 0.00 0.00 0.00 1015.2
20260506192729 0 0.0 0.0 0.00 0.00 0.00 1015.1
20260506192137 0 0.0 0.0 0.00 0.00 0.00 1015.1
20260506191633 0 0.0 0.0 0.00 0.00 0.00 1014.9
20260506191117 0 0.0 0.0 0.00 0.00 0.00 1014.9
20260506190536 0 0.0 0.0 0.00 0.00 0.00 1014.9
20260506190025 0 0.0 0.0 0.00 0.00 0.00 1014.8
20260506185017 0 0.0 0.0 0.00 0.00 0.00 1014.8
20260506184454 0 0.0 0.0 0.00 0.00 0.00 1014.7
20260506183902 0 0.0 0.0 0.00 0.00 0.00 1014.7
20260506183356 0 0.0 0.0 0.00 0.00 0.00 1014.7
20260506182850 0 0.0 0.0 0.00 0.00 0.00 1014.7
20260506182327 0 0.0 0.0 0.00 0.00 0.00 1014.7
20260506181744 0 0.0 0.0 0.00 0.00 0.00 1014.6
20260506181239 0 0.0 0.0 0.00 0.00 0.00 1014.6
20260506180731 0 0.0 0.0 0.00 0.00 0.00 1014.6
20260506180212 0 0.0 0.0 0.00 0.00 0.00 1014.5
20260506175711 0 0.0 0.0 0.00 0.00 0.00 1014.5
20260506175133 0 0.0 0.0 0.00 0.00 0.00 1014.5
20260506174608 0 0.0 0.0 0.00 0.00 0.00 1014.3
20260506174050 0 0.0 0.0 0.00 0.00 0.00 1014.3
20260506173502 0 0.0 0.0 0.00 0.00 0.00 1014.3
20260506172443 0 0.0 0.0 0.00 0.00 0.00 1014.2